Wynau, Switzerland

12:59 AM CET on November 21, 2017 (GMT +0100)
Wynau

Weather History for 06643 - March, 2014

Change the Weather History Date:

Thursday, March 27, 2014

  Actual Average Record
Temperature  
Mean Temperature 41 °F -  
Max Temperature 55 °F 54 °F - ()
Min Temperature 27 °F 35 °F - ()
Degree Days  
Heating Degree Days 24    
Moisture  
Dew Point 32 °F    
Average Humidity 71    
Maximum Humidity 100    
Minimum Humidity 28    
Precipitation  
Precipitation 0.00 in - - ()
Sea Level Pressure  
Sea Level Pressure 29.87 in    
Wind  
Wind Speed 2 mph ()    
Max Wind Speed 8 mph    
Max Gust Speed -    
T = Trace of Precipitation, MM = Missing Value Source: Averaged Metar Reports

Daily Weather History Graph

Daily Weather History Graph

Search for Another Location

Airport or City:

Trip Planner

Search our weather history database for the weather conditions in past years. The results will help you decide how hot, cold, wet, or windy it might be!

Date:

Astronomy

Mar. 27, 2014 Rise Set
Actual Time 6:18 AM CET 6:51 PM CET
Civil Twilight 5:47 AM CET 7:21 PM CET
Nautical Twilight 5:11 AM CET 7:58 PM CET
Astronomical Twilight 4:33 AM CET 8:36 PM CET
Moon 4:12 AM CET (3/27) 3:07 PM CET (3/27)
Length of Visible Light 13h 34m
Length of Day
12h 32m
Waning Crescent, 15% of the Moon is Illuminated
Mar 27
Waning Crescent
Mar 30
New
Apr 7
First Quarter
Apr 15
Full
Apr 22
Last Quarter

Hourly Weather History & Observations

Time (CET) Temp. Dew Point Humidity Pressure Visibility Wind Dir Wind Speed Gust Speed Precip Events Conditions
12:00 AM 32 °F 30 °F 89% 29.92 in - SW 1.2 mph - -  
1:00 AM 31 °F 30 °F 94% 29.91 in - SW 1.2 mph - -  
2:00 AM 31 °F 29 °F 91% 29.91 in - South 1.2 mph - -  
3:00 AM 29 °F 28 °F 96% 29.92 in - SW 2.3 mph - -  
4:00 AM 29 °F 28 °F 96% 29.92 in - WSW 1.2 mph - -  
5:00 AM 29 °F 28 °F 93% 29.93 in - SW 1.2 mph - -  
6:00 AM 28 °F 28 °F 99% 29.93 in - ENE 2.3 mph - -  
7:00 AM 27 °F 27 °F 100% 29.94 in - East 1.2 mph - -  
8:00 AM 28 °F 28 °F 100% 29.94 in - NE 1.2 mph - -  
9:00 AM 32 °F 31 °F 95% 29.92 in - East 1.2 mph - -  
10:00 AM 39 °F 33 °F 73% 29.89 in - North 2.3 mph - -  
11:00 AM 45 °F 35 °F 56% 29.86 in - NE 3.5 mph - -  
12:00 PM 46 °F 33 °F 49% 29.84 in - NNE 2.3 mph - -  
1:00 PM 49 °F 34 °F 43% 29.81 in - East 3.5 mph - -  
2:00 PM 53 °F 35 °F 38% 29.79 in - East 4.6 mph - -  
3:00 PM 54 °F 35 °F 36% 29.78 in - ENE 8.1 mph - -  
4:00 PM 54 °F 33 °F 32% 29.77 in - ENE 5.8 mph - -  
5:00 PM 54 °F 30 °F 28% 29.77 in - ENE 5.8 mph - -  
6:00 PM 54 °F 31 °F 28% 29.79 in - East 3.5 mph - -  
7:00 PM 47 °F 35 °F 53% 29.83 in - Calm Calm - -  
8:00 PM 44 °F 36 °F 63% 29.85 in - SSW 1.2 mph - -  
9:00 PM 41 °F 36 °F 74% 29.88 in - SW 1.2 mph - -  
10:00 PM 39 °F 36 °F 83% 29.89 in - WSW 1.2 mph - -  
11:00 PM 37 °F 35 °F 89% 29.91 in - SW 2.3 mph - -